Stevensville, MD

12:08 PM EDT on July 24, 2017 (GMT -0400)
Stevensville

Weather History for KW29 - July, 2013

Change the Weather History Date:

Saturday, July 20, 2013

  Actual Average (KESN) Record (KESN)
Temperature  
Mean Temperature 86 °F -  
Max Temperature 91 °F 88 °F 95 °F (1952)
Min Temperature 80 °F 69 °F 61 °F (1965)
Cooling Degree Days 20    
Growing Degree Days 36 (Base 50)    
Moisture  
Dew Point 74 °F    
Average Humidity 70    
Maximum Humidity 84    
Minimum Humidity 49    
Precipitation  
Precipitation 0.00 in - - ()
Sea Level Pressure  
Sea Level Pressure 29.86 in    
Wind  
Wind Speed 7 mph (SW)    
Max Wind Speed 13 mph    
Max Gust Speed 17 mph    
Visibility 10 miles    
Events Thunderstorm    
Averages and records for this station are not official NWS values.
T = Trace of Precipitation, MM = Missing Value Source: NWS Daily Summary

Daily Weather History Graph

Daily Weather History Graph

Search for Another Location

Airport or City:

Trip Planner

Search our weather history database for the weather conditions in past years. The results will help you decide how hot, cold, wet, or windy it might be!

Date:

Astronomy

Jul. 20, 2013 Rise Set
Actual Time 5:56 AM EDT 8:26 PM EDT
Civil Twilight 5:25 AM EDT 8:57 PM EDT
Nautical Twilight 4:47 AM EDT 9:35 PM EDT
Astronomical Twilight 4:04 AM EDT 10:17 PM EDT
Moon 6:28 PM EDT (7/20) 3:33 AM EDT (7/20)
Length of Visible Light 15h 32m
Length of Day
14h 30m
Waxing Gibbous, 93% of the Moon is Illuminated
Jul 20
Waxing Gibbous
Jul 22
Full
Jul 29
Last Quarter
Aug 6
New
Aug 14
First Quarter

Hourly Weather History & Observations

Time (EDT) Temp. Heat Index Dew Point Humidity Pressure Visibility Wind Dir Wind Speed Gust Speed Precip Events Conditions
12:17 AM 84.2 °F 90.9 °F 73.4 °F 70% 29.88 in 10.0 mi SW 6.9 mph - N/A   Clear
12:37 AM 84.2 °F 90.9 °F 73.4 °F 70% 29.88 in 10.0 mi SW 8.1 mph - N/A   Clear
12:57 AM 82.4 °F 89.5 °F 75.2 °F 79% 29.88 in 10.0 mi SW 8.1 mph - N/A   Clear
1:17 AM 82.4 °F 89.5 °F 75.2 °F 79% 29.88 in 10.0 mi SW 6.9 mph - N/A   Clear
1:37 AM 82.4 °F 89.5 °F 75.2 °F 79% 29.88 in 10.0 mi SSW 4.6 mph - N/A   Clear
1:57 AM 82.4 °F 90.9 °F 77.0 °F 84% 29.89 in 10.0 mi WSW 5.8 mph - N/A   Clear
2:17 AM 82.4 °F 89.5 °F 75.2 °F 79% 29.89 in 10.0 mi WSW 5.8 mph - N/A   Clear
2:37 AM 82.4 °F 89.5 °F 75.2 °F 79% 29.88 in 10.0 mi SW 4.6 mph - N/A   Clear
2:57 AM 82.4 °F 89.5 °F 75.2 °F 79% 29.88 in 10.0 mi WSW 6.9 mph - N/A   Clear
3:17 AM 80.6 °F 86.2 °F 75.2 °F 84% 29.87 in 10.0 mi SW 5.8 mph - N/A   Clear
3:38 AM 82.4 °F 89.5 °F 75.2 °F 79% 29.87 in 10.0 mi SW 4.6 mph - N/A   Clear
3:58 AM 82.4 °F 89.5 °F 75.2 °F 79% 29.86 in 10.0 mi SW 5.8 mph - N/A   Clear
4:18 AM 80.6 °F 85.4 °F 73.4 °F 79% 29.86 in 10.0 mi SSW 4.6 mph - N/A   Clear
4:38 AM 80.6 °F 86.2 °F 75.2 °F 84% 29.85 in 10.0 mi SSW 6.9 mph - N/A   Clear
4:58 AM 80.6 °F 86.2 °F 75.2 °F 84% 29.85 in 10.0 mi SSW 6.9 mph - N/A   Clear
5:18 AM 80.6 °F 86.2 °F 75.2 °F 84% 29.86 in 10.0 mi SSW 6.9 mph - N/A   Clear
5:38 AM 80.6 °F 86.2 °F 75.2 °F 84% 29.87 in 10.0 mi SSW 6.9 mph - N/A   Clear
5:58 AM 80.6 °F 86.2 °F 75.2 °F 84% 29.87 in 10.0 mi SW 5.8 mph - N/A   Clear
6:18 AM 80.6 °F 86.2 °F 75.2 °F 84% 29.88 in 10.0 mi SW 6.9 mph - N/A   Clear
6:38 AM 80.6 °F 86.2 °F 75.2 °F 84% 29.89 in 10.0 mi WSW 10.4 mph - N/A   Clear
6:58 AM 80.6 °F 86.2 °F 75.2 °F 84% 29.89 in 10.0 mi WSW 6.9 mph - N/A   Scattered Clouds
7:18 AM 80.6 °F 86.2 °F 75.2 °F 84% 29.89 in 10.0 mi WSW 6.9 mph - N/A   Clear
7:38 AM 80.6 °F 85.4 °F 73.4 °F 79% 29.89 in 10.0 mi WSW 8.1 mph - N/A   Clear
7:58 AM 80.6 °F 85.4 °F 73.4 °F 79% 29.89 in 10.0 mi SW 6.9 mph - N/A   Clear
8:18 AM 80.6 °F 85.4 °F 73.4 °F 79% 29.89 in 10.0 mi SW 8.1 mph - N/A   Clear
8:38 AM 80.6 °F 86.2 °F 75.2 °F 84% 29.89 in 10.0 mi SW 6.9 mph - N/A   Clear
8:58 AM 80.6 °F 86.2 °F 75.2 °F 84% 29.89 in 10.0 mi WSW 8.1 mph - N/A   Clear
9:18 AM 80.6 °F 86.2 °F 75.2 °F 84% 29.89 in 10.0 mi SW 6.9 mph - N/A   Clear
9:38 AM 80.6 °F 86.2 °F 75.2 °F 84% 29.88 in 10.0 mi SW 4.6 mph - N/A   Clear
9:58 AM 80.6 °F 85.4 °F 73.4 °F 79% 29.89 in 10.0 mi WSW 5.8 mph - N/A   Clear
10:18 AM 82.4 °F 89.5 °F 75.2 °F 79% 29.89 in 10.0 mi WSW 4.6 mph - N/A   Clear
10:38 AM 82.4 °F 88.2 °F 73.4 °F 74% 29.90 in 10.0 mi WSW 6.9 mph - N/A   Clear
10:58 AM 82.4 °F 89.5 °F 75.2 °F 79% 29.90 in 10.0 mi SW 5.8 mph - N/A   Clear
11:18 AM 82.4 °F 89.5 °F 75.2 °F 79% 29.89 in 10.0 mi SW 6.9 mph - N/A   Clear
11:38 AM 84.2 °F 90.9 °F 73.4 °F 70% 29.89 in 10.0 mi SW 5.8 mph - N/A   Clear
11:58 AM 86.0 °F 93.4 °F 73.4 °F 66% 29.89 in 10.0 mi SW 4.6 mph - N/A   Clear
12:19 PM 86.0 °F 93.4 °F 73.4 °F 66% 29.88 in 10.0 mi SW 6.9 mph - N/A   Clear
12:39 PM 86.0 °F 93.4 °F 73.4 °F 66% 29.87 in 10.0 mi SSW 5.8 mph - N/A   Clear
12:59 PM 87.8 °F 95.6 °F 73.4 °F 62% 29.87 in 10.0 mi SSW 8.1 mph - N/A   Clear
1:19 PM 89.6 °F 96.2 °F 71.6 °F 55% 29.87 in 10.0 mi SW 9.2 mph - N/A   Clear
1:39 PM 89.6 °F 96.2 °F 71.6 °F 55% 29.86 in 10.0 mi WSW 8.1 mph - N/A   Clear
1:59 PM 89.6 °F 98.2 °F 73.4 °F 59% 29.86 in 10.0 mi WSW 5.8 mph - N/A   Clear
2:19 PM 89.6 °F 96.2 °F 71.6 °F 55% 29.85 in 10.0 mi SW 5.8 mph - N/A   Clear
2:39 PM 89.6 °F 98.2 °F 73.4 °F 59% 29.84 in 10.0 mi SSW 10.4 mph - N/A   Clear
2:59 PM 91.4 °F 98.4 °F 71.6 °F 52% 29.83 in 10.0 mi SW 10.4 mph - N/A   Clear
3:19 PM 91.4 °F 98.4 °F 71.6 °F 52% 29.82 in 10.0 mi SW 9.2 mph - N/A   Clear
3:39 PM 91.4 °F 98.4 °F 71.6 °F 52% 29.82 in 10.0 mi SW 10.4 mph - N/A   Clear
3:59 PM 91.4 °F 98.4 °F 71.6 °F 52% 29.81 in 10.0 mi SW 9.2 mph - N/A   Clear
4:19 PM 91.4 °F 98.4 °F 71.6 °F 52% 29.81 in 10.0 mi SW 10.4 mph - N/A   Clear
4:39 PM 91.4 °F 96.8 °F 69.8 °F 49% 29.80 in 10.0 mi SW 9.2 mph - N/A   Clear
4:59 PM 91.4 °F 98.4 °F 71.6 °F 52% 29.80 in 10.0 mi SSW 11.5 mph - N/A   Clear
5:19 PM 91.4 °F 96.8 °F 69.8 °F 49% 29.80 in 10.0 mi SSW 12.7 mph 17.3 mph N/A   Clear
5:39 PM 91.4 °F 96.8 °F 69.8 °F 49% 29.80 in 10.0 mi SW 9.2 mph - N/A   Clear
5:59 PM 91.4 °F 96.8 °F 69.8 °F 49% 29.79 in 10.0 mi SW 9.2 mph - N/A   Clear
6:19 PM 91.4 °F 98.4 °F 71.6 °F 52% 29.80 in 10.0 mi SSW 8.1 mph - N/A   Clear
6:39 PM 89.6 °F 98.2 °F 73.4 °F 59% 29.80 in 10.0 mi SSW 6.9 mph - N/A   Clear
6:59 PM 89.6 °F 98.2 °F 73.4 °F 59% 29.81 in 10.0 mi SSW 9.2 mph - N/A   Clear
7:19 PM 87.8 °F 95.6 °F 73.4 °F 62% 29.82 in 10.0 mi SSW 10.4 mph - N/A   Clear
7:39 PM 87.8 °F 95.6 °F 73.4 °F 62% 29.83 in 10.0 mi SSW 8.1 mph - N/A   Clear
7:59 PM 87.8 °F 95.6 °F 73.4 °F 62% 29.83 in 10.0 mi SSW 6.9 mph - N/A   Scattered Clouds
8:20 PM 86.0 °F 91.8 °F 71.6 °F 62% 29.83 in 10.0 mi SSW 9.2 mph - N/A   Scattered Clouds
8:40 PM 86.0 °F 91.8 °F 71.6 °F 62% 29.83 in 10.0 mi SSW 8.1 mph - N/A   Clear
9:00 PM 86.0 °F 91.8 °F 71.6 °F 62% 29.84 in 10.0 mi SSW 9.2 mph - N/A   Clear
9:20 PM 86.0 °F 93.4 °F 73.4 °F 66% 29.83 in 10.0 mi SSW 8.1 mph 16.1 mph N/A   Clear
9:40 PM 86.0 °F 93.4 °F 73.4 °F 66% 29.84 in 10.0 mi SSW 9.2 mph - N/A   Clear
10:00 PM 84.2 °F 90.9 °F 73.4 °F 70% 29.83 in 10.0 mi SSW 8.1 mph - N/A   Clear
10:20 PM 84.2 °F 90.9 °F 73.4 °F 70% 29.85 in 10.0 mi SSW 9.2 mph - N/A   Clear
10:40 PM 82.4 °F 88.2 °F 73.4 °F 74% 29.88 in 10.0 mi SW 8.1 mph - N/A Thunderstorm Clear
11:00 PM 82.4 °F 88.2 °F 73.4 °F 74% 29.88 in 10.0 mi SW 6.9 mph - N/A   Scattered Clouds
11:20 PM 82.4 °F 88.2 °F 73.4 °F 74% 29.87 in 10.0 mi West 6.9 mph - N/A   Scattered Clouds
11:40 PM 82.4 °F 88.2 °F 73.4 °F 74% 29.88 in 10.0 mi West 4.6 mph - N/A   Clear